Regional Weather Roundup
Issued by NWS

Home | Current Version | Previous Version | Text Only | Print | Product List | Glossary On
Versions: 1 2 3 4 5 6 7 8 9 10 11 12 13 14 15 16 17 18 19 20 21 22 23 24 25 26 27 28 29 30 31 32 33 34 35 36 37 38 39 40 41 42 43 44 45 46 47 48 49 50
000
ASUS44 KOUN 271210
RWROK

WEATHER ROUNDUP FOR OKLAHOMA
NATIONAL WEATHER SERVICE NORMAN OK
700 AM CDT WED MAY 27 2015

NOTE: "FAIR" INDICATES FEW OR NO CLOUDS BELOW 12,000 FEET WITH NO
      SIGNIFICANT WEATHER AND/OR OBSTRUCTIONS TO VISIBILITY.

OKZ001>007-009>012-014-015-017-271300-
NORTHWEST OKLAHOMA AND THE PANHANDLE

CITY           SKY/WX    TMP DP  RH WIND       PRES   REMARKS
GAGE           LGT RAIN  58  57  97 S5        30.05R
6HR MIN TEMP:  57; 6HR MAX TEMP:  66; 6HR PCP: TRACE;

GUYMON         CLEAR     61  58  90 S5        30.06S
ENID/WOODRING  PTCLDY    61  59  94 CALM      30.02S
$$

OKZ016-021>023-033>039-044-045-271300-
SOUTHWEST OKLAHOMA

CITY           SKY/WX    TMP DP  RH WIND       PRES   REMARKS
LAWTON/REGL    PTCLDY    63  60  90 SE3       30.04R
6HR MIN TEMP:  60; 6HR MAX TEMP:  66;

LAWTON/FT SILL PTCLDY    61  59  93 N2        30.03R
FREDERICK      MOCLDY    63  61  93 E6        30.01R
CLINTON        PTCLDY    61  58  90 S8        30.06S
HOBART         MOCLDY    60  59  96 CALM      30.05S
ALTUS AFB      MOCLDY    61  61 100 E2        30.03R
$$

OKZ018>020-024>031-271300-
CENTRAL OKLAHOMA

CITY           SKY/WX    TMP DP  RH WIND       PRES   REMARKS
OKLAHOMA CITY  PTCLDY    61  61 100 CALM      30.04S FOG
6HR MIN TEMP:  60; 6HR MAX TEMP:  69;

OKC/WILEY POST CLEAR     64  64 100 S6        30.04S FOG
OKC/TINKER AFB CLEAR     64  64 100 S5        30.04R FOG
STILLWATER     FOG       67  67 100 CALM      30.04S VSB<1/4
GUTHRIE        FOG       65  65 100 SE6       30.03S VSB 1/4
$$

OKZ008-013-054>072-271300-
NORTHEAST OKLAHOMA

CITY           SKY/WX    TMP DP  RH WIND       PRES   REMARKS
TULSA          PTCLDY    67  64  90 S6        30.04R
6HR MIN TEMP:  65; 6HR MAX TEMP:  71;

TULSA/JONES    MOCLDY    65  64  97 CALM      30.05R
PONCA CITY     PTCLDY    60  59  96 CALM      30.04S
BARTLESVILLE   PTCLDY    62  62 100 CALM      30.06R
MUSKOGEE       PTCLDY    62  59  90 SE3       30.05S
$$

OKZ032-040>043-046>053-073>077-271300-
SOUTH CENTRAL/SOUTHEAST OKLAHOMA

CITY           SKY/WX    TMP DP  RH WIND       PRES   REMARKS
ARDMORE/DWNTWN CLEAR     61  59  94 CALM      30.04S
MCALESTER      CLOUDY    67  65  93 CALM      30.05R
$$




USA.gov is the U.S. government's official web portal to all federal, state and local government web resources and services.